Location: *
(50.8160°S, 176.0219°W)
Time: 02:10:10
(UTC+00:00)

Cosmos 2221 Rocket - Pass Details

Date: 19 May 2026
Orbit: 616 x 640 km, 82.5° (Epoch: 8 June)

Event Time Altitude Azimuth Distance (km) Brightness Sun altitude
Exits shadow 17:07:08 31° 205° (SSW) 1,108 4.5 -20.5°
Maximum altitude 17:09:08 65° 276° (W) 698 3.5 -20.2°
Drops below altitude 10° 17:13:31 10° 357° (N) 1,995 6.2 -19.5°
Sets 17:15:44 0° 360° (N) 2,891 7.1 -19.1°
